Regional Weather Roundup
Issued by NWS

Home | Current Version | Previous Version | Graphics & Text | Print | Product List | Glossary On
Versions: 1 2 3 4 5 6 7 8 9 10 11 12 13 14 15 16 17 18 19 20 21 22 23 24 25 26 27 28 29 30 31 32 33 34 35 36 37 38 39 40 41 42 43 44 45 46 47 48 49 50
045
ASUS43 KBIS 301810
RWRND

NORTH DAKOTA REGIONAL WEATHER ROUNDUP
NATIONAL WEATHER SERVICE BISMARCK ND
100 PM CDT SAT APR 30 2016

NOTE: "FAIR" INDICATES FEW OR NO CLOUDS BELOW 12,000 FEET WITH NO
SIGNIFICANT WEATHER AND/OR OBSTRUCTIONS TO VISIBILITY.


NDZ001>003-009>011-017-301900-
NORTHWEST NORTH DAKOTA

CITY           SKY/WX    TMP DP  RH WIND       PRES   REMARKS
WILLISTON      SUNNY     60  28  29 E14       30.26F
6HR MIN TEMP:  37; 6HR MAX TEMP:  60;

MINOT          MOSUNNY   63  27  25 NE14G29   30.25F
MINOT AFB      SUNNY     59  30  33 E15G23    30.24F
$$

NDZ018>021-031>035-040>046-301900-
SOUTHWEST NORTH DAKOTA

CITY           SKY/WX    TMP DP  RH WIND       PRES   REMARKS
BISMARCK       PTSUNNY   57  31  37 E23G35    30.21S
6HR MIN TEMP:  40; 6HR MAX TEMP:  57;

DICKINSON      MOSUNNY   53  31  42 NE18G29   30.18S
GARRISON         N/A     56  29  35 NE15G24   30.23F
6HR MIN TEMP:  38; 6HR MAX TEMP:  60;

HETTINGER ARPT MOSUNNY   55  34  45 E18G30    30.18S
$$

NDZ004>008-012>016-024-026-027-054-301900-
NORTHEAST NORTH DAKOTA

CITY           SKY/WX    TMP DP  RH WIND       PRES   REMARKS
GRAND FORKS    MOSUNNY   59  29  31 NE24G33   30.23F
GRND FRKS AFB  SUNNY     59  28  30 E16G23    30.24F
DEVILS LAKE    SUNNY     56  28  34 NE20G28   30.25F
$$

NDZ022-023-025-028>030-036>039-047>053-301900-
SOUTHEAST NORTH DAKOTA

CITY           SKY/WX    TMP DP  RH WIND       PRES   REMARKS
FARGO          SUNNY     61  28  28 NE23G32   30.16F
6HR MIN TEMP:  42; 6HR MAX TEMP:  61;

JAMESTOWN      SUNNY     58  29  33 E23G32    30.18F
$$





USA.gov is the U.S. government's official web portal to all federal, state and local government web resources and services.